Location: Unspecified
(42.9300°N, 71.1866°W)
Time: 03:48:25

GENESIS II - Visible Passes

Search period start: 23 October 2016 00:00
Search period end: 02 November 2016 00:00
Orbit: 485 x 553 km, 64.5° (Epoch: 22 October)

Date Brightness Start Highest point End Pass type
(mag) Time Alt. Az. Time Alt. Az. Time Alt. Az.
29 Oct 6.8 06:40:57 10° N 06:43:34 16° NE 06:46:10 10° E visible
30 Oct 6.8 06:26:11 10° N 06:28:53 17° NE 06:31:33 10° E visible
31 Oct 6.8 06:11:25 10° N 06:14:12 17° NE 06:16:56 10° E visible
01 Nov 6.8 05:56:39 10° N 05:59:30 18° NE 06:02:18 10° E visible
